TAP1908 LPPR-LPFR

Flight info

Callsign TAP1908
Flight time 0h 50m
Altitude 33000
Route MANIK DCT INBOM DCT ALAGU
Aircraft A320/M-SDE3FGHIRWY/LB1

Departure

Time 2026-05-07 23:33
Airport Francisco de Sá Carneiro Airport (LPPR)

Arrival

Time 2026-05-08 00:23
Airport Faro - Gago Coutinho International Airport (LPFR)
Time Latitude Longitude Altitude Speed Heading
2026-05-07 23:16 41.23736 -8.67558 236 ft 0 kts 258°
2026-05-07 23:25 41.23741 -8.67533 237 ft 4 kts 249°
2026-05-07 23:25 41.23753 -8.67501 237 ft 4 kts 230°
2026-05-07 23:26 41.23773 -8.67478 237 ft 4 kts 204°
2026-05-07 23:26 41.23798 -8.67470 237 ft 4 kts 175°
2026-05-07 23:26 41.23808 -8.67471 237 ft 0 kts 168°
2026-05-07 23:29 41.23786 -8.67465 237 ft 6 kts 168°
2026-05-07 23:29 41.23725 -8.67450 237 ft 12 kts 168°
2026-05-07 23:29 41.23625 -8.67423 237 ft 17 kts 168°
2026-05-07 23:29 41.23489 -8.67386 237 ft 21 kts 169°
2026-05-07 23:30 41.23354 -8.67378 237 ft 14 kts 223°
2026-05-07 23:30 41.23320 -8.67493 237 ft 13 kts 259°
2026-05-07 23:30 41.23309 -8.67580 237 ft 8 kts 260°
2026-05-07 23:30 41.23308 -8.67582 237 ft 0 kts 260°
2026-05-07 23:31 41.23308 -8.67583 237 ft 1 kts 260°
2026-05-07 23:31 41.23304 -8.67619 237 ft 6 kts 260°
2026-05-07 23:32 41.23300 -8.67683 238 ft 6 kts 277°
2026-05-07 23:32 41.23321 -8.67724 239 ft 5 kts 327°
2026-05-07 23:32 41.23350 -8.67741 238 ft 4 kts 341°
2026-05-07 23:32 41.23353 -8.67742 238 ft 0 kts 343°
2026-05-07 23:33 41.23508 -8.67785 233 ft 62 kts 349°
2026-05-07 23:33 41.24166 -8.67956 215 ft 126 kts 349°
2026-05-07 23:33 41.25164 -8.68219 438 ft 151 kts 348°
2026-05-07 23:33 41.26176 -8.68514 1150 ft 149 kts 348°
2026-05-07 23:34 41.27213 -8.68786 1696 ft 158 kts 349°
2026-05-07 23:34 41.28373 -8.69085 2010 ft 181 kts 349°
2026-05-07 23:34 41.29688 -8.69420 2344 ft 203 kts 349°
2026-05-07 23:34 41.31163 -8.69801 2683 ft 229 kts 348°
2026-05-07 23:35 41.32807 -8.70231 3148 ft 253 kts 348°
2026-05-07 23:35 41.34583 -8.70697 3845 ft 266 kts 348°
2026-05-07 23:35 41.36420 -8.71179 4742 ft 272 kts 348°
2026-05-07 23:35 41.38299 -8.71674 5594 ft 279 kts 346°
2026-05-07 23:36 41.40083 -8.72712 6382 ft 284 kts 319°
2026-05-07 23:36 41.41312 -8.74734 7149 ft 283 kts 290°
2026-05-07 23:36 41.41702 -8.77231 7950 ft 278 kts 262°
2026-05-07 23:36 41.41389 -8.79758 8809 ft 277 kts 251°
2026-05-07 23:37 41.40630 -8.82078 9651 ft 272 kts 228°
2026-05-07 23:37 41.39254 -8.83801 10222 ft 279 kts 207°
2026-05-07 23:37 41.37375 -8.84658 10496 ft 297 kts 184°
2026-05-07 23:37 41.35250 -8.84418 10790 ft 316 kts 169°
2026-05-07 23:38 41.33066 -8.83831 11416 ft 323 kts 169°
2026-05-07 23:38 41.30842 -8.83229 12144 ft 328 kts 169°
2026-05-07 23:38 41.28598 -8.82623 12904 ft 331 kts 169°
2026-05-07 23:38 41.26322 -8.82016 13645 ft 335 kts 169°
2026-05-07 23:39 41.24015 -8.81406 14295 ft 339 kts 169°
2026-05-07 23:39 41.21689 -8.80792 14961 ft 343 kts 169°
2026-05-07 23:39 41.19339 -8.80173 15613 ft 346 kts 169°
2026-05-07 23:39 41.16962 -8.79546 16257 ft 350 kts 169°
2026-05-07 23:40 41.14558 -8.78911 16902 ft 353 kts 169°
2026-05-07 23:40 41.12188 -8.78150 17513 ft 356 kts 165°
2026-05-07 23:40 41.09794 -8.77238 18139 ft 360 kts 163°
2026-05-07 23:40 41.07389 -8.76266 18663 ft 363 kts 163°
2026-05-07 23:41 41.04961 -8.75265 19168 ft 367 kts 163°
2026-05-07 23:41 41.02511 -8.74251 19665 ft 370 kts 163°
2026-05-07 23:41 41.00042 -8.73234 20162 ft 374 kts 164°
2026-05-07 23:41 40.97541 -8.72215 20653 ft 378 kts 164°
2026-05-07 23:42 40.95019 -8.71198 21126 ft 381 kts 164°
2026-05-07 23:42 40.92465 -8.70176 21598 ft 385 kts 165°
2026-05-07 23:42 40.89888 -8.69148 22070 ft 388 kts 165°
2026-05-07 23:42 40.87289 -8.68113 22529 ft 392 kts 165°
2026-05-07 23:43 40.84668 -8.67068 22984 ft 395 kts 165°
2026-05-07 23:43 40.82047 -8.66024 23423 ft 399 kts 165°
2026-05-07 23:43 40.79344 -8.64948 23810 ft 402 kts 165°
2026-05-07 23:43 40.76696 -8.63896 24197 ft 404 kts 165°
2026-05-07 23:44 40.73988 -8.62820 24590 ft 406 kts 165°
2026-05-07 23:44 40.71277 -8.61742 24986 ft 408 kts 165°
2026-05-07 23:44 40.68553 -8.60657 25368 ft 410 kts 165°
2026-05-07 23:44 40.65811 -8.59566 25750 ft 412 kts 165°
2026-05-07 23:45 40.63064 -8.58474 26133 ft 414 kts 165°
2026-05-07 23:45 40.60307 -8.57379 26516 ft 415 kts 165°
2026-05-07 23:45 40.57528 -8.56278 26890 ft 417 kts 166°
2026-05-07 23:45 40.54741 -8.55174 27255 ft 419 kts 166°
2026-05-07 23:46 40.51942 -8.54067 27601 ft 421 kts 166°
2026-05-07 23:46 40.49133 -8.52957 27933 ft 423 kts 166°
2026-05-07 23:46 40.46342 -8.51859 28264 ft 425 kts 166°
2026-05-07 23:46 40.43465 -8.50730 28596 ft 427 kts 166°
2026-05-07 23:47 40.40649 -8.49627 28920 ft 428 kts 166°
2026-05-07 23:47 40.37789 -8.48505 29228 ft 430 kts 166°
2026-05-07 23:47 40.34913 -8.47373 29534 ft 432 kts 166°
2026-05-07 23:47 40.32032 -8.46232 29929 ft 432 kts 166°
2026-05-07 23:48 40.29161 -8.45095 30338 ft 430 kts 166°
2026-05-07 23:48 40.26305 -8.43968 30738 ft 429 kts 166°
2026-05-07 23:48 40.23455 -8.42844 31117 ft 427 kts 166°
2026-05-07 23:48 40.20611 -8.41728 31517 ft 425 kts 167°
2026-05-07 23:49 40.17783 -8.40624 31909 ft 424 kts 167°
2026-05-07 23:49 40.14965 -8.39527 32304 ft 422 kts 167°
2026-05-07 23:49 40.12156 -8.38437 32703 ft 420 kts 168°
2026-05-07 23:49 40.09355 -8.37351 32915 ft 420 kts 167°
2026-05-07 23:50 40.03775 -8.35181 32952 ft 417 kts 168°
2026-05-07 23:50 39.98217 -8.33015 32951 ft 417 kts 167°
2026-05-07 23:51 39.92666 -8.30850 32945 ft 416 kts 168°
2026-05-07 23:51 39.87128 -8.28703 32947 ft 415 kts 168°
2026-05-07 23:52 39.81627 -8.26578 32946 ft 415 kts 168°
2026-05-07 23:52 39.76092 -8.24446 32946 ft 415 kts 168°
2026-05-07 23:53 39.70554 -8.22320 32944 ft 415 kts 168°
2026-05-07 23:53 39.65015 -8.20179 32943 ft 415 kts 168°
2026-05-07 23:54 39.59478 -8.18036 32945 ft 415 kts 168°
2026-05-07 23:54 39.53947 -8.15906 32944 ft 415 kts 168°
2026-05-07 23:55 39.48414 -8.13796 32950 ft 414 kts 168°
2026-05-07 23:55 39.42883 -8.11676 32951 ft 414 kts 168°
2026-05-07 23:56 39.37357 -8.09572 32949 ft 413 kts 168°
2026-05-07 23:56 39.31832 -8.07465 32951 ft 413 kts 168°
2026-05-07 23:57 39.26321 -8.05364 32949 ft 413 kts 168°
2026-05-07 23:57 39.20843 -8.03280 32955 ft 413 kts 168°
2026-05-07 23:58 39.15330 -8.01191 32948 ft 413 kts 168°
2026-05-07 23:58 39.09816 -7.99104 32950 ft 413 kts 168°
2026-05-07 23:59 39.04305 -7.97016 32958 ft 413 kts 168°
2026-05-07 23:59 38.98792 -7.94929 32956 ft 412 kts 169°
2026-05-08 00:00 38.93284 -7.92862 32957 ft 412 kts 169°
2026-05-08 00:00 38.87778 -7.90792 32957 ft 412 kts 169°
2026-05-08 00:01 38.82324 -7.88743 32962 ft 411 kts 169°
2026-05-08 00:01 38.76834 -7.86685 32961 ft 411 kts 169°
2026-05-08 00:02 38.71356 -7.84630 32969 ft 410 kts 169°
2026-05-08 00:02 38.65888 -7.82588 32968 ft 409 kts 169°
2026-05-08 00:03 38.60419 -7.80549 32967 ft 408 kts 169°
2026-05-08 00:03 38.54966 -7.78509 32966 ft 408 kts 169°
2026-05-08 00:04 38.49518 -7.76482 32970 ft 407 kts 169°
2026-05-08 00:04 38.44072 -7.74465 32967 ft 407 kts 169°
2026-05-08 00:05 38.38683 -7.72464 32962 ft 406 kts 169°
2026-05-08 00:05 38.33256 -7.70446 32960 ft 406 kts 169°
2026-05-08 00:06 38.27838 -7.68446 32676 ft 405 kts 169°
2026-05-08 00:06 38.25122 -7.67447 32417 ft 406 kts 169°
2026-05-08 00:06 38.22398 -7.66445 32152 ft 408 kts 169°
2026-05-08 00:07 38.19664 -7.65438 31650 ft 410 kts 168°
2026-05-08 00:07 38.16907 -7.64422 30672 ft 415 kts 168°
2026-05-08 00:07 38.14113 -7.63394 29574 ft 421 kts 168°
2026-05-08 00:07 38.11286 -7.62356 28531 ft 424 kts 168°
2026-05-08 00:08 38.09386 -7.61815 28198 ft 422 kts 174°
2026-05-08 00:08 38.06474 -7.61469 27982 ft 420 kts 181°
2026-05-08 00:08 38.02608 -7.61451 27949 ft 420 kts 182°
2026-05-08 00:08 37.99684 -7.61444 27947 ft 420 kts 182°
2026-05-08 00:09 37.96760 -7.61440 27953 ft 420 kts 182°
2026-05-08 00:09 37.94781 -7.61441 27954 ft 420 kts 182°
2026-05-08 00:09 37.91868 -7.61447 27843 ft 420 kts 182°
2026-05-08 00:09 37.88925 -7.61454 26704 ft 425 kts 182°
2026-05-08 00:10 37.85995 -7.61458 25650 ft 428 kts 182°
2026-05-08 00:10 37.83014 -7.61457 24795 ft 425 kts 182°
2026-05-08 00:10 37.80077 -7.61456 24008 ft 421 kts 182°
2026-05-08 00:10 37.77147 -7.61456 23208 ft 418 kts 182°
2026-05-08 00:11 37.74251 -7.61456 22434 ft 413 kts 182°
2026-05-08 00:11 37.71404 -7.61455 21744 ft 407 kts 182°
2026-05-08 00:11 37.68588 -7.61456 21073 ft 402 kts 182°
2026-05-08 00:11 37.65809 -7.61458 20413 ft 396 kts 182°
2026-05-08 00:12 37.63070 -7.61461 19777 ft 392 kts 181°
2026-05-08 00:12 37.60361 -7.61465 19165 ft 387 kts 181°
2026-05-08 00:12 37.57687 -7.61467 18538 ft 383 kts 181°
2026-05-08 00:12 37.55033 -7.61468 17866 ft 379 kts 181°
2026-05-08 00:13 37.52410 -7.61470 17127 ft 376 kts 181°
2026-05-08 00:13 37.49805 -7.61472 16431 ft 373 kts 181°
2026-05-08 00:13 37.47219 -7.61472 15742 ft 371 kts 180°
2026-05-08 00:13 37.44643 -7.61472 15062 ft 369 kts 180°
2026-05-08 00:14 37.42080 -7.61473 14411 ft 367 kts 180°
2026-05-08 00:14 37.39532 -7.61474 13783 ft 365 kts 180°
2026-05-08 00:14 37.37050 -7.61472 13430 ft 355 kts 180°
2026-05-08 00:14 37.34628 -7.61469 13292 ft 340 kts 180°
2026-05-08 00:15 37.32312 -7.61468 13157 ft 326 kts 181°
2026-05-08 00:15 37.30188 -7.61469 13030 ft 313 kts 181°
2026-05-08 00:15 37.28046 -7.61470 12898 ft 302 kts 181°
2026-05-08 00:15 37.25990 -7.61472 12764 ft 291 kts 181°
2026-05-08 00:16 37.24000 -7.61472 12584 ft 282 kts 181°
2026-05-08 00:16 37.22062 -7.61471 12002 ft 277 kts 181°
2026-05-08 00:16 37.20144 -7.61470 11350 ft 275 kts 181°
2026-05-08 00:16 37.18233 -7.61471 10694 ft 274 kts 181°
2026-05-08 00:17 37.16335 -7.61474 10054 ft 272 kts 181°
2026-05-08 00:17 37.14444 -7.61477 9358 ft 271 kts 181°
2026-05-08 00:17 37.12561 -7.61480 8644 ft 270 kts 180°
2026-05-08 00:17 37.10670 -7.61481 8166 ft 272 kts 180°
2026-05-08 00:18 37.08787 -7.61647 7751 ft 271 kts 191°
2026-05-08 00:18 37.07006 -7.62403 7321 ft 271 kts 206°
2026-05-08 00:18 37.05386 -7.63562 6991 ft 267 kts 209°
2026-05-08 00:18 37.03797 -7.64725 6957 ft 269 kts 209°
2026-05-08 00:19 37.02180 -7.65904 6567 ft 269 kts 209°
2026-05-08 00:19 37.00575 -7.67098 5848 ft 268 kts 213°
2026-05-08 00:19 36.99283 -7.68762 5114 ft 269 kts 238°
2026-05-08 00:19 36.98627 -7.70928 4388 ft 268 kts 262°
2026-05-08 00:20 36.98597 -7.73238 3663 ft 265 kts 272°
2026-05-08 00:20 36.98654 -7.75545 2959 ft 264 kts 272°
2026-05-08 00:20 36.98713 -7.77783 2619 ft 247 kts 276°
2026-05-08 00:20 36.98992 -7.79802 2508 ft 226 kts 282°
2026-05-08 00:21 36.99305 -7.81701 2284 ft 218 kts 282°
2026-05-08 00:21 36.99576 -7.83528 2011 ft 209 kts 281°
2026-05-08 00:21 36.99829 -7.85283 1737 ft 201 kts 282°
2026-05-08 00:21 37.00070 -7.86970 1489 ft 190 kts 281°
2026-05-08 00:22 37.00298 -7.88563 1223 ft 183 kts 281°
2026-05-08 00:22 37.00515 -7.90084 984 ft 175 kts 280°
2026-05-08 00:22 37.00725 -7.91555 739 ft 168 kts 279°
2026-05-08 00:22 37.00922 -7.92932 530 ft 154 kts 279°
2026-05-08 00:23 37.01101 -7.94191 329 ft 139 kts 279°
2026-05-08 00:23 37.01271 -7.95361 149 ft 134 kts 280°
2026-05-08 00:23 37.01427 -7.96502 36 ft 132 kts 284°
2026-05-08 00:23 37.01536 -7.97258 20 ft 48 kts 281°
2026-05-08 00:24 37.01585 -7.97585 20 ft 38 kts 281°
2026-05-08 00:24 37.01646 -7.97847 20 ft 21 kts 329°
2026-05-08 00:24 37.01738 -7.97774 21 ft 16 kts 60°
2026-05-08 00:24 37.01775 -7.97651 20 ft 14 kts 83°
2026-05-08 00:25 37.01764 -7.97536 20 ft 13 kts 103°
2026-05-08 00:25 37.01775 -7.97437 22 ft 11 kts 50°
2026-05-08 00:25 37.01831 -7.97378 20 ft 10 kts 42°
2026-05-08 00:25 37.01838 -7.97305 20 ft 8 kts 96°
2026-05-08 00:26 37.01832 -7.97240 20 ft 7 kts 84°
2026-05-08 00:26 37.01864 -7.97209 20 ft 6 kts 16°
2026-05-08 00:26 37.01885 -7.97203 20 ft 0 kts 11°